This demonstration page uses our WeatherBlox Daily Observations layout. Learn more.

Left ArrowRight Arrow

Hourly Observations for May 19, 2021

Temp ( °F °C ) Dew Point ( °F °C ) Humidity (%) Winds ( mph kmh ) Pressure ( in mb ) Visibility ( mi km ) Precip ( " mm )
12:53 am 00:53 Clear 66 18.9 42 5.6 42 42 N 12 19 29.66 1005 10 16 0.00 0.00
1:53 am 01:53 Clear 65 18.3 46 7.8 51 51 N 5 7 29.65 1004 10 16 0.00 0.00
2:53 am 02:53 Clear 62 16.7 44 6.7 52 52 N 5 7 29.66 1004 10 16 0.00 0.00
3:53 am 03:53 Clear 61 16.1 47 8.3 60 60 ENE 8 13 29.66 1004 10 16 0.00 0.00
4:53 am 04:53 Clear 62 16.7 53 11.7 73 73 NE 9 15 29.66 1004 10 16 0.00 0.00
5:53 am 05:53 Clear 62 16.7 55 12.8 78 78 NE 7 11 29.69 1005 10 16 0.00 0.00
6:31 am 06:31 Mostly Cloudy 62 16.7 57 13.9 84 84 NNE 10 17 29.77 1008 10 16 0.00 0.00
6:53 am 06:53 Cloudy 65 18.3 59 15 81 81 NE 12 19 29.71 1006 10 16 0.00 0.00
7:26 am 07:26 Partly Cloudy 65 18.3 60 15.6 84 84 ENE 12 19 29.76 1008 10 16 0.00 0.00
7:53 am 07:53 Sunny 66 18.9 60 15.6 81 81 ENE 10 17 29.73 1007 10 16 0.00 0.00
8:53 am 08:53 Partly Cloudy 69 20.6 59 15 70 70 E 12 19 29.73 1007 10 16 0.00 0.00
9:53 am 09:53 Mostly Sunny 73 22.8 58 14.4 59 59 ENE 7 11 29.73 1007 10 16 0.00 0.00
10:53 am 10:53 Mostly Sunny 75 23.9 56 13.3 52 52 NE 13 20 29.73 1007 10 16 0.00 0.00
11:53 am 11:53 Partly Cloudy 78 25.6 55 12.8 45 45 ENE 10 17 29.73 1007 10 16 0.00 0.00
12:53 pm 12:53 Mostly Sunny 80 26.7 51 10.6 37 37 NNE 10 17 29.73 1007 10 16 0.00 0.00
1:53 pm 13:53 Sunny 83 28.3 47 8.3 28 28 VRB 5 7 29.72 1006 10 16 0.00 0.00
2:53 pm 14:53 Partly Cloudy 84 28.9 46 7.8 27 27 NE 9 15 29.71 1006 10 16 0.00 0.00
3:53 pm 15:53 Mostly Sunny 85 29.4 45 7.2 25 25 VRB 3 6 29.70 1006 10 16 0.00 0.00
4:53 pm 16:53 Mostly Sunny 86 30 44 6.7 23 23 Calm 29.67 1005 10 16 0.00 0.00
5:53 pm 17:53 Partly Cloudy 87 30.6 43 6.1 21 21 N 6 9 29.66 1004 10 16 0.00 0.00
6:53 pm 18:53 Mostly Sunny 84 28.9 49 9.4 30 30 ESE 20 31 29.66 1004 10 16 0.00 0.00
7:53 pm 19:53 Sunny 81 27.2 51 10.6 35 35 ESE 16 26 29.66 1005 10 16 0.00 0.00
8:53 pm 20:53 Clear 76 24.4 54 12.2 47 47 SE 24 39 29.68 1005 10 16 0.00 0.00
9:53 pm 21:53 Clear 73 22.8 56 13.3 55 55 SE 17 28 29.70 1006 10 16 0.00 0.00
10:53 pm 22:53 Clear 70 21.1 60 15.6 71 71 SE 18 30 29.72 1006 10 16 0.00 0.00
11:53 pm 23:53 Clear 69 20.6 61 16.1 76 76 SE 13 20 29.74 1007 10 16 0.00 0.00

Powered by AerisWeather